Zurück zum Katalog

COSMOS 713

AktivMilitärLEO
NORAD 7680·PAYLOAD·🇷🇺 Russia

Gestartet Feb 28, 1975 von Plesetsk Cosmodrome

Loading…

Nächste Überflüge (nächste 24 Stunden)

TLE

AktuellSource: Space-Track

Epoche: Sep 14, 2026, 11:46 UTC

1 07680U 75016C   26257.49035979 -.00000027  00000-0 -65689-4 0  9997
2 07680  74.0000 258.5442 0058454   9.7514  65.2667 12.55677021362612

Verfolge COSMOS 713 in Echtzeit mit AllMySat

Download on the App Store